Regional Weather Roundup
Issued by NWS

Home | Current Version | Previous Version | Text Only | Print | Product List | Glossary Off
Versions: 1 2 3 4 5 6 7 8 9 10 11 12 13 14 15 16 17 18 19 20 21 22 23 24 25 26 27 28 29 30 31 32 33 34 35 36 37 38 39 40 41 42 43 44 45 46 47 48 49 50

000
ASUS43 KMPX 170501
RWRMN
WEATHER ROUNDUP FOR MINNESOTA
NATIONAL WEATHER SERVICE TWIN CITIES/CHANHASSEN MN
1200 AM CDT THU APR 17 2014


NOTE: "FAIR" INDICATES FEW OR NO CLOUDS BELOW 12,000 FEET WITH NO
SIGNIFICANT WEATHER AND/OR OBSTRUCTIONS TO VISIBILITY. N/A MEANS
CURRENT SKY AND/OR WEATHER CONDITIONS ARE NOT AVAILABLE.

MNZ060>063-068>070-170600-
   Twin Cities Metro

CITY           SKY/WX    TMP DP  RH WIND       PRES   REMARKS
TWIN CITIES    LGT SNOW  29  29 100 N20       29.95R FOG     WCI  16
ST PAUL        LGT RAIN  32  30  92 N16G23    29.96R FOG     WCI  21
CRYSTAL        LGT SNOW  29  26  89 N16G26    29.97R VSB 3/4 WCI  17
BLAINE         LGT SNOW  30  30 100 N16G22    29.98R VSB 3/4 WCI  19
EDEN PRAIRIE   LGT SNOW  30  28  92 N17G25    29.93R VSB 3/4 WCI  18
LAKEVILLE      LGT RAIN  34  32  93 N13G21    29.90S WCI  25
SOUTH ST PAUL  LGT RAIN  37  36  95 N8        29.94R
LAKE ELMO      LGT SNOW  34  34 100 N9        29.96R WCI  26
$$
MNZ001>005-007-008-013>017-022>024-027-028-170600-
   Northwest Minnesota

CITY           SKY/WX    TMP DP  RH WIND       PRES   REMARKS
BEMIDJI        CLEAR     24  13  62 NE5       30.21R WCI  19
HALLOCK        CLOUDY    27  14  59 N12       30.32R WCI  16
ROSEAU         CLEAR     25  16  68 N7        30.30R WCI  17
WARROAD        CLEAR     27   9  46 N8        30.30R WCI  18
THIEF RVR FALL CLEAR     28   9  43 N10G16    30.27S WCI  19
CROOKSTON      CLEAR     28  16  59 NE8       30.28S WCI  20
FOSSTON        CLEAR     25  12  58 N8        30.24R WCI  16
DETROIT LAKES  CLEAR     28  21  74 N3        30.21R
MOORHEAD       CLEAR     30  25  80 N9        30.23S WCI  22
PARK RAPIDS    CLEAR     25  19  78 NE6       30.18S WCI  18
$$
MNZ006-009>011-018-025>026-170600-
   North Central Minnesota

CITY           SKY/WX    TMP DP  RH WIND       PRES   REMARKS
BAUDETTE       PTCLDY    28   7  41 N8        30.27S WCI  20
FLAG ISLAND    CLEAR     25   5  42 NE6       30.30R WCI  18
INTL FALLS     CLEAR     26   8  46 NE5       30.26R WCI  20
WASKISH        CLEAR     27  10  50 NE6       30.25R WCI  20
BIG FORK       CLOUDY    27  18  69 NE5       30.22S WCI  21
LONGVILLE      CLOUDY    25  19  80 NE5       30.18S WCI  19
GRAND RAPIDS   CLOUDY    25  18  74 NE7       30.17F WCI  17
CRANE LAKE     CLOUDY    21  10  63 CALM      30.26S
ORR            CLOUDY    25  14  63 CALM      30.20S
COOK           CLOUDY    25  18  74 NE5       30.22S WCI  19
$$
MNZ012-019>021-037-170600-
   Northeast Minnesota

CITY           SKY/WX    TMP DP  RH WIND       PRES   REMARKS
DULUTH         LGT SNOW  27  22  81 NE20G30   30.12S VSB 3/4 WCI  13
ELY            FLURRIES  23  19  86 NE8       30.21S WCI  14
HIBBING        CLOUDY    26  19  74 NE9       30.18S WCI  17
EVELETH        LGT SNOW  27  21  80 NE9G17    30.18S WCI  17
DULUTH HARBOR  LGT SNOW  28  27  93 NE26G32   30.16S VSB 3/4 WCI  13
TWO HARBORS    LGT SNOW  27  21  80 NE14G22   30.14S WCI  15
SILVER BAY     LGT SNOW  25  25 100 NE16G25   30.16F WCI  12
GRAND MARAIS     N/A     29  24  82 NE16G25   30.26F WCI  17
G MARAIS ARPRT LGT SNOW  21  18  86 NE12      30.21S WCI   9
$$
MNZ029>031-032-039>041-046>048-054>057-064-170600-
   West Central Minnesota

CITY           SKY/WX    TMP DP  RH WIND       PRES   REMARKS
FERGUS FALLS   CLEAR     28  19  69 NE6       30.17S WCI  22
WHEATON        CLEAR     28  25  86 N8        30.21S WCI  20
MORRIS         CLEAR     27  19  74 N13       30.15R WCI  16
ALEXANDRIA     CLEAR     25  19  78 N13       30.13S WCI  14
ELBOW LAKE     FAIR      25  20  82 N9        30.16S WCI  15
WADENA         CLEAR     23  18  80 N8        30.16S WCI  14
GLENWOOD       CLEAR     25  19  80 N15G21    30.12R WCI  12
APPLETON       MOCLDY    28  21  74 N13       30.15R WCI  18
BENSON         CLEAR     27  21  80 NE10      30.13S WCI  17
ORTONVILLE     CLEAR     23  18  80 N8        30.16S WCI  14
MADISON        CLOUDY    32  27  80 N15       30.15R WCI  22
WILLMAR        CLOUDY    28  23  80 N24       30.09R WCI  14
$$
MNZ033>034-036-042>043-049>051-058-059-170600-
   Central Minnesota

CITY           SKY/WX    TMP DP  RH WIND       PRES   REMARKS
ST CLOUD       CLOUDY    29  23  78 N14G22    30.06R WCI  18
SAUK CENTRE    CLOUDY    27  21  77 N14G22    30.11R WCI  16
PAYNESVILLE    CLOUDY    28  23  82 N15G22    30.08R WCI  16
AITKIN         FLURRIES  28  21  74 N10G17    30.12S WCI  19
PINE RIVER     MOCLDY    25  19  80 N10       30.20R WCI  15
BRAINERD       CLOUDY    30  20  66 NE13      30.14S WCI  20
STAPLES        PTCLDY    25  19  80 N7        30.15R WCI  17
LONG PRAIRIE   CLOUDY    27  21  80 VRB14G20  30.11S WCI  15
LITTLE FALLS   CLOUDY    28  21  74 N7        30.11R WCI  21
LITCHFIELD     CLOUDY    28  27  93 N14G21    30.05R WCI  17
BUFFALO        MIX PCPN  29  25  86 N17G23    30.03R WCI  16
MAPLE LAKE     CLOUDY    30  27  88 N16G23    30.04R WCI  18
$$
MNZ037-044-045-052-053-170600-
   East Central Minnesota

CITY           SKY/WX    TMP DP  RH WIND       PRES   REMARKS
PRINCETON      LGT SNOW  28  25  86 N18G24    30.05R WCI  16
MORA           FLURRIES  28  25  86 NE13G20   30.07S WCI  18
CAMBRIDGE      LGT SNOW  30  23  74 N12G21    30.02R WCI  21
RUSH CITY      LGT SNOW  28  26  94 N13G22    30.04R WCI  17
MOOSE LAKE     LGT SNOW  28  27  93 NE15G23   30.09S WCI  17
HINCKLEY       LGT SNOW  28  28 100 NE18G25   30.06S WCI  16
CLOQUET        LGT SNOW  27  25  93 NE14      30.12S WCI  15
MCGREGOR       CLOUDY    27  23  86 N13       30.13S WCI  16
$$
MNZ071>073-080-081-089-090-097-098-170600-
   Southwest Minnesota

CITY           SKY/WX    TMP DP  RH WIND       PRES   REMARKS
MONTEVIDEO     CLOUDY    28  25  86 NE17G24   30.13R WCI  16
GRANITE FALLS  CLOUDY    28  24  82 N18G24    30.12R WCI  16
CANBY          CLOUDY    29  24  82 N16       30.15R WCI  17
MARSHALL       CLOUDY    28  21  74 N18       30.10R WCI  16
REDWOOD FALLS  CLOUDY    29  25  85 N14G21    30.06R WCI  18
OLIVIA         CLOUDY    30  27  86 N15       30.06R WCI  19
PIPESTONE      CLOUDY    28  25  86 N14       30.08R WCI  17
WINDOM         CLOUDY    28  27  93 NW25G31   30.03R WCI  14
WORTHINGTON    CLOUDY    28  21  74 N23G31    30.06R WCI  14
JACKSON        CLOUDY    30  27  86 NW22G32   30.01R WCI  17
TRACY          CLOUDY    29  26  88 N18G26    30.08R WCI  16
SLAYTON        CLOUDY    27  26  94 N18G25    30.07R WCI  14
$$
MNZ065>067-074>077-082>085-091>093-170600-
   South Central Minnesota

CITY           SKY/WX    TMP DP  RH WIND       PRES   REMARKS
MANKATO        CLOUDY    30  28  93 N22G30    29.94R WCI  17
NEW ULM        CLOUDY    28  28 100 N14G28    30.00R WCI  17
ST JAMES       CLOUDY    30  28  93 NW22      30.00R WCI  17
FAIRMONT       CLOUDY    30  27  86 NW22G30   29.98R WCI  17
GLENCOE        CLOUDY    31  25  81 N16G24    29.98R WCI  19
FARIBAULT      LGT RAIN  37  34  87 NW13      29.87S
OWATONNA       LGT RAIN  37  36  93 N15       29.85R
WASECA         LGT RAIN  34  32  93 NW22      29.90R WCI  22
ALBERT LEA     RAIN      37  37 100 NW13G20   29.83R
$$
MNZ078>079-086>088-094>096-170600-
   Southeast Minnesota

CITY           SKY/WX    TMP DP  RH WIND       PRES   REMARKS
ROCHESTER      LGT RAIN  46  33  60 SE18G33   29.81S
RED WING       LGT RAIN  43  39  87 E7        29.89S
STANTON        MIX PCPN  40  38  93 N10       29.86S
DODGE CENTER   LGT RAIN  46  37  71 SE12      29.81S
WINONA         CLOUDY    50  30  46 SE12      29.87R
AUSTIN         LGT RAIN  45  37  76 S8        29.79R
PRESTON        CLOUDY    48  31  52 S20G28    29.84R
$$
ABBREVIATIONS USED IN REMARKS
   TC - TEMPERATURES IN CELSIUS
  WCI - WIND CHILL INDEX
   HX - HEAT INDEX
  VSB - VISIBILITY
$$


USA.gov is the U.S. government's official web portal to all federal, state and local government web resources and services.